Campo, CA

7:48 PM PDT on May 23, 2018 (GMT -0700)
Campo

Weather History for KCZZ - November, 2014

Change the Weather History Date:

Tuesday, November 11, 2014

  Actual Average Record
Temperature  
Mean Temperature 56 °F 54 °F  
Max Temperature 64 °F 72 °F 89 °F (1996)
Min Temperature 47 °F 37 °F 26 °F (1965)
Degree Days  
Heating Degree Days 9 11  
Month to date heating degree days 86 104  
Since 1 July heating degree days 174 314  
Cooling Degree Days 0 0  
Month to date cooling degree days 0 0  
Year to date cooling degree days 900 839  
Growing Degree Days 6 (Base 50)    
Moisture  
Dew Point 46 °F    
Average Humidity 75    
Maximum Humidity 93    
Minimum Humidity 56    
Precipitation  
Precipitation 0.00 in 0.03 in 0.87 in (1949)
Month to date precipitation 0.13 0.31  
Year to date precipitation 4.92 12.64  
Since 1 July precipitation 2.16  
Snow  
Snow 0.00 in - - ()
Month to date snowfall 0.0  
Year to date snowfall 0.0  
Snow Depth 0.00 in    
Sea Level Pressure  
Sea Level Pressure 29.87 in    
Wind  
Wind Speed 8 mph (West)    
Max Wind Speed 20 mph    
Max Gust Speed 23 mph    
T = Trace of Precipitation, MM = Missing Value Source: NWS Daily Summary

Daily Weather History Graph

Daily Weather History Graph

Search for Another Location

Airport or City:

Astronomy

Nov. 11, 2014 Rise Set
Actual Time 6:12 AM PST 4:47 PM PST
Civil Twilight 5:46 AM PST 5:13 PM PST
Nautical Twilight 5:16 AM PST 5:42 PM PST
Astronomical Twilight 4:47 AM PST 6:11 PM PST
Moon 9:14 PM PST (11/11) 10:21 AM PST (11/11)
Length of Visible Light 11h 26m
Length of Day
10h 35m
Waning Gibbous, 76% of the Moon is Illuminated
Nov 11
Waning Gibbous
Nov 14
Last Quarter
Nov 22
New
Nov 29
First Quarter
Dec 6
Full

Hourly Weather History & Observations

Time (PST) Temp. Dew Point Humidity Pressure Visibility Wind Dir Wind Speed Gust Speed Precip Events Conditions
12:52 AM 48.9 °F 46.0 °F 90% 29.83 in - ENE 5.8 mph - N/A   Unknown
1:52 AM 50.0 °F 46.9 °F 89% 29.83 in - NNE 4.6 mph - N/A   Unknown
2:52 AM 48.9 °F 45.0 °F 86% 29.83 in - NNW 3.5 mph - N/A   Unknown
3:52 AM 48.9 °F 44.1 °F 83% 29.85 in - North 3.5 mph - N/A   Unknown
4:52 AM 48.9 °F 45.0 °F 86% 29.86 in - NE 3.5 mph - N/A   Unknown
5:52 AM 48.9 °F 43.0 °F 80% 29.87 in - North 3.5 mph - N/A   Unknown
6:52 AM 50.0 °F 44.1 °F 80% 29.88 in - Calm Calm - N/A   Unknown
7:52 AM 52.0 °F 45.0 °F 77% 29.91 in - SSE 3.5 mph - N/A   Unknown
8:52 AM 54.0 °F 45.0 °F 72% 29.91 in - West 5.8 mph - N/A   Unknown
9:52 AM 57.0 °F 45.0 °F 64% 29.91 in - Variable 4.6 mph - N/A   Unknown
10:52 AM 60.1 °F 46.0 °F 60% 29.88 in - SW 19.6 mph - N/A   Unknown
11:52 AM 61.0 °F 46.0 °F 58% 29.86 in - SSW 15.0 mph - N/A   Unknown
12:52 PM 63.0 °F 46.0 °F 54% 29.84 in - SW 15.0 mph 21.9 mph N/A   Unknown
1:52 PM 63.0 °F 46.9 °F 56% 29.83 in - SSW 17.3 mph - N/A   Unknown
2:52 PM 62.1 °F 48.0 °F 60% 29.84 in - WSW 12.7 mph - N/A   Unknown
3:52 PM 60.1 °F 48.0 °F 64% 29.83 in - WSW 10.4 mph - N/A   Unknown
4:52 PM 57.0 °F 48.0 °F 72% 29.85 in - WSW 9.2 mph - N/A   Unknown
5:52 PM 54.0 °F 46.9 °F 77% 29.86 in - SSW 5.8 mph - N/A   Unknown
6:52 PM 53.1 °F 48.0 °F 83% 29.88 in - SW 5.8 mph - N/A   Unknown
7:52 PM 53.1 °F 48.0 °F 83% 29.88 in - WSW 3.5 mph - N/A   Unknown
8:52 PM 52.0 °F 46.9 °F 83% 29.88 in - West 4.6 mph - N/A   Unknown
9:52 PM 51.1 °F 46.9 °F 86% 29.89 in - NW 4.6 mph - N/A   Unknown
10:52 PM 52.0 °F 46.9 °F 83% 29.89 in - Variable 3.5 mph - N/A   Unknown
11:52 PM 53.1 °F 46.0 °F 77% 29.89 in - WNW 4.6 mph - N/A   Unknown